Location: Newark
(46.7636°N, 1.8358°W)
Time: 07:43:00
(UTC+00:00)

Courier 1B - Visible Passes

Search period start: 16 October 2019 00:00
Search period end: 26 October 2019 00:00
Orbit: 962 x 1209 km, 28.3° (Epoch: 15 October)

Date Brightness Start Highest point End Pass type
(mag) Time Alt. Az. Time Alt. Az. Time Alt. Az.
16 Oct 9.6 19:36:38 10° SSW 19:40:26 15° SSE 19:40:26 15° SSE visible
17 Oct 9.7 18:43:49 10° S 18:47:00 13° SSE 18:50:03 10° SE visible
17 Oct 9.8 20:35:03 10° SW 20:36:56 15° SSW 20:36:56 15° SSW visible
18 Oct 9.9 17:51:51 10° S 17:53:27 11° SSE 17:55:02 10° SSE visible
18 Oct 9.4 19:41:31 10° SSW 19:46:18 18° S 19:46:31 18° S visible
19 Oct 9.6 18:48:11 10° SSW 18:52:43 17° S 18:56:05 13° SE visible
19 Oct 9.8 20:40:47 10° SW 20:42:58 15° SSW 20:42:58 15° SSW visible
20 Oct 9.8 17:55:07 10° SSW 17:59:08 15° SSE 18:03:09 10° SE visible
20 Oct 9.4 19:47:01 10° SW 19:52:05 19° S 19:52:31 19° S visible
21 Oct 9.5 18:53:24 10° SW 18:58:29 19° S 19:02:03 14° SE visible
21 Oct 9.9 20:46:59 10° SW 20:48:57 14° SSW 20:48:57 14° SSW visible
22 Oct 9.7 18:00:00 10° SSW 18:04:52 18° S 18:09:45 10° SE visible
22 Oct 9.5 19:52:58 10° SW 19:57:52 18° S 19:58:29 18° S visible
23 Oct 9.6 18:59:08 10° SW 19:04:15 19° S 19:08:03 13° SSE visible
23 Oct 10.1 20:53:54 10° SW 20:54:56 12° SW 20:54:56 12° SW visible
24 Oct 9.7 18:05:29 10° SW 18:10:38 19° S 18:15:48 10° SE visible
24 Oct 9.7 19:59:24 10° SW 20:03:35 15° SSW 20:04:31 15° S visible
25 Oct 9.8 19:05:18 10° SW 19:10:00 17° S 19:14:08 11° SSE visible
